OBJECT H, 44886

Orbit data source: Space-Track

You're viewing an Uncataloged Satellite

Recently launched and/or uncataloged satellites may have evolving metadata. Metadata may include but not limited to: Owner, Maufacturer, Bus, Motor, and Mission.

OBJECT H, 44886 is a satellite in SSO that was launched on Fri, 20 Dec 2019 UTC via a CHANG ZHENG 4B launch vehicle from the Taiyaun Space Center, China (TSC). Unknown objects in Earth's orbit typically refer to objects detected orbiting the Earth but have not yet been identified or cataloged. These objects could be anything from previously untracked satellites, spent rocket stages, debris from satellite collisions, or even natural meteoroids temporarily captured by Earth's gravity.

Loading next visibility...
OBJECT H details
Identifier
44886, 2019-093H
Orbit
SSO
Last TLE update9 hours ago
Origin
Flag of TBDTLCJ/ZXKJ (TBD)
ManufacturerWeina
MissionOperational Commercial Imaging
Bus & MotorMN50, Unknown motor
Mass72 kg wet, 72 kg dry
Launch date (UTC)
2019-12-20 (5 years ago)
Launch vehicle
CHANG ZHENG 4B
Launch site
Taiyaun Space Center, China (TSC)
Object typeUnknown
Shape & HBRBox + 2 Pan, Unknown HBR
Radar Cross Section0.195 m², Medium (>0.1 m² and < 1m²)

Expand to show TLE details & history

TLE from 9 hours ago
0 OBJECT H
1 44886U 19093H   24361.49577402  .00006650  00000-0  68392-3 0  9994
2 44886  97.8342  82.1407 0013822  54.2324 306.0177 14.90584469271940
Epoch: 2024-12-26T11:53Z
Definitive object data (Epoch: 2024-12-26T11:53:54.875Z)
Latitude-0°
Longitude168.18771°
Altitude593.489 km
Speed7.566 km/s
True Right ascension05h 28m 33s
True Declination0° 00' 00"
Sunlit
Object was in full shadow at TLE epoch
Visualization TLE readout
Latitude-67.15028°
Longitude-172.47488°
Altitude626.48 km
Speed7.541 km/s
Apparent Right ascension07h 58m 32s
Apparent Declination-54° 46' 34"
Sunlit
Object is in daylight
Visualization observer readout
Local Sidereal Time20:38:30
Azimuth159.103° S
Elevation-73.709°
Doppler factor1
Orbital elements
Apogee altitude602.771 km
Perigee altitude583.5 km
Semi-major axis6,971.273 km
Eccentricity0.0013822
Inclination97.8342°
RAAN82.1407°
Arg. of periapsis54.2324°
True anomaly305.88946°
Mean anomaly306.0177°
Eccentric anomaly305.95359°
Mean motion3.72885 °/min
BSTAR0.00068392
Orbital period96.54 mins
Loading maneuver chart data...
Loading historical data...
Loading historical data...
Loading historical data...
Loading historical data...
Loading historical data...
Loading historical data...
Loading historical data...

OBJECT H Visibility forecast

Observer location: undefined°, undefined

Span
Click to sort rows by Start time (UTC) header in descending order
Start Az.
Max El. time (UTC)
Max El. Az.
Max El.
End time (UTC)
End Az.
7 mins2024-12-27 05:44:32.556Z173.482° S2024-12-27 05:47:32.556Z210.285° SW42.683°2024-12-27 05:51:32.556Z343.076° N
5 mins2024-12-27 19:05:32.556Z337.336° NNW2024-12-27 19:07:32.556Z285.888° WNW30.255°2024-12-27 19:10:32.556Z227.251° WSW
|